Location: Kailua
(21.4020°N, 157.7390°W)
Time: 15:13:48
(UTC-10:00)

Cosmos 2221 Rocket - Visible Passes

Search period start: 26 August 2016 00:00
Search period end: 05 September 2016 00:00
Orbit: 620 x 650 km, 82.5° (Epoch: 26 August)

Date Brightness Start Highest point End Pass type
(mag) Time Alt. Az. Time Alt. Az. Time Alt. Az.
26 Aug 6.4 03:27:37 14° E 03:27:43 14° E 03:29:55 10° ENE visible
26 Aug 4.4 05:05:09 28° W 05:05:33 28° W 05:09:22 10° NNW visible
27 Aug 5.3 03:50:37 30° ENE 03:50:37 30° ENE 03:53:46 10° NNE visible
27 Aug 5.5 05:28:09 11° WNW 05:28:09 11° WNW 05:29:27 10° WNW visible
28 Aug 4.6 04:13:33 39° N 04:13:33 39° N 04:16:22 10° N visible
29 Aug 5.2 04:36:24 22° NNW 04:36:24 22° NNW 04:38:16 10° NNW visible
30 Aug 6.6 03:21:41 12° NE 03:21:41 12° NE 03:22:08 10° NE visible
31 Aug 6.3 03:44:26 13° NNE 03:44:26 13° NNE 03:44:59 10° NNE visible
